Location: Ermatingen
(47.6706°N, 9.0857°E)
Time: 02:53:03
(UTC+00:00)

Lacrosse 5 rocket - Pass Details

Date: 18 September 2020
Orbit: 460 x 636 km, 57.0° (Epoch: 24 October)

Event Time Altitude Azimuth Distance (km) Brightness Sun altitude
Rises 18:06:46 0° 254° (WSW) 2,716 6.2 -7.1°
Reaches altitude 10° 18:09:01 10° 261° (W) 1,855 5.4 -7.5°
Maximum altitude 18:13:04 43° 334° (NNW) 825 2.6 -8.2°
Drops below altitude 10° 18:17:20 10° 47° (NE) 1,960 3.8 -8.9°
Enters shadow 18:19:34 - 53° (NE) 2,806 4.5 -9.3°
